Home > Time Zones > World Clock > Weather > U.S.A. > Gary > Past weeks

Flag for U.S.A. Weather past 2 weeks in Gary, Indiana, U.S.A.

Now
54 °F

Passing clouds.


Feels Like: 54 °F
Forecast: 54 / 68 °F
Wind: No wind

Location: Lansing Municipal Airport

Current Time: Oct 24, 2014 at 8:48:23 PM

Latest Report: Oct 24, 2014 at 8:15 PM


Visibility: 10 mi

Pressure: 29.97 "Hg

Humidity: 79%

Dew point: 47 °F

Location of GaryLocation

Historic Weather in Gary — Graph

°F

Gary temperature yesterday

Maximum temperature yesterday: 59 °F (at 2:15 PM)
Minimum temperature yesterday: 34 °F (at 6:35 AM)
Average temperature yesterday: 48 °F

Past Weeks' High & Low Weather Summary

 TemperatureHumidityPressure
High70 °F (Oct 13, 5:55 PM)99% (Oct 13, 4:35 AM)30.38 "Hg (Oct 13, 4:35 AM)
Low33 °F (Oct 19, 5:35 AM)38% (Oct 11, 12:35 PM)29.48 "Hg (Oct 14, 12:15 PM)
Average51 °F81%29.98 "Hg
* Reported Oct 9 7:15 PM — Oct 24 7:55 PM, Gary, Weather by CustomWeather, © 2014

Note: Actual official high and low records may vary slightly from our data, if they occured in-between our weather recording intervals... More about our weather records

Advertising

Gary weather history for previous 24 hours

 ConditionsComfort  
Time TempWeatherWind HumidityBarometerVisibility
7:55 PM
Oct 24
53 °FOvercast.No wind80%29.96 "Hg10 mi
7:15 PM53 °FPassing clouds.3 mph79%29.96 "Hg10 mi
6:55 PM55 °FPassing clouds.No wind70%29.97 "Hg10 mi
6:15 PM58 °FClear.No wind65%29.96 "Hg10 mi
5:55 PM60 °FClear.No wind64%29.97 "Hg10 mi
5:35 PM63 °FSunny.3 mph57%29.97 "Hg10 mi
5:15 PM64 °FSunny.5 mph56%29.97 "Hg10 mi
4:55 PM65 °FSunny.3 mph55%29.97 "Hg10 mi
4:15 PM66 °FSunny.9 mph51%29.98 "Hg10 mi
3:55 PM66 °FSunny.7 mph52%29.98 "Hg10 mi
3:35 PM66 °FSunny.7 mph56%29.98 "Hg10 mi
3:15 PM66 °FSunny.No wind59%29.98 "Hg10 mi
2:55 PM65 °FSunny.3 mph59%29.98 "Hg10 mi
2:35 PM65 °FSunny.10 mph60%29.99 "Hg10 mi
2:15 PM65 °FSunny.9 mph61%30.00 "Hg10 mi
1:55 PM64 °FSunny.8 mph64%30.00 "Hg10 mi
1:35 PM63 °FSunny.5 mph65%30.01 "Hg10 mi
1:15 PM63 °FSunny.9 mph66%30.01 "Hg10 mi
12:55 PM62 °FScattered clouds.7 mph66%30.02 "Hg10 mi
12:35 PM63 °FScattered clouds.6 mph66%30.03 "Hg10 mi
12:15 PM62 °FPartly sunny.6 mph68%30.04 "Hg10 mi
11:55 AM61 °FPartly sunny.6 mph69%30.05 "Hg10 mi
11:15 AM59 °FScattered clouds.No wind71%30.06 "Hg10 mi
10:55 AM59 °FSunny.3 mph71%30.06 "Hg10 mi
10:35 AM58 °FSunny.3 mph72%30.07 "Hg10 mi
10:15 AM56 °FScattered clouds.3 mph74%30.07 "Hg10 mi
9:55 AM55 °FPartly sunny.No wind77%30.07 "Hg10 mi
9:35 AM54 °FOvercast.3 mph78%30.08 "Hg10 mi
9:15 AM52 °FOvercast.3 mph83%30.08 "Hg10 mi
8:55 AM51 °FOvercast.5 mph85%30.08 "Hg10 mi
8:35 AM50 °FOvercast.5 mph88%30.08 "Hg10 mi
8:15 AM50 °FOvercast.5 mph88%30.08 "Hg10 mi
7:55 AM49 °FOvercast.3 mph89%30.08 "Hg10 mi
7:35 AM49 °FOvercast.3 mph88%30.07 "Hg10 mi
7:15 AM49 °FOvercast.3 mph89%30.06 "Hg10 mi
6:55 AM49 °FMostly cloudy.3 mph89%30.07 "Hg10 mi
6:35 AM48 °FOvercast.3 mph87%30.07 "Hg10 mi
6:15 AM47 °FPassing clouds.No wind87%30.06 "Hg10 mi
5:55 AM49 °FPassing clouds.3 mph84%30.06 "Hg10 mi
5:35 AM50 °FPassing clouds.3 mph81%30.06 "Hg10 mi
5:15 AM51 °FOvercast.No wind80%30.06 "Hg10 mi
4:55 AM51 °FMostly cloudy.No wind80%30.06 "Hg10 mi
4:35 AM52 °FOvercast.3 mph78%30.06 "Hg10 mi
4:15 AM51 °FOvercast.3 mph81%30.06 "Hg10 mi
3:55 AM51 °FOvercast.No wind78%30.05 "Hg10 mi
3:35 AM51 °FOvercast.5 mph77%30.05 "Hg10 mi
3:15 AM51 °FOvercast.6 mph76%30.06 "Hg10 mi
2:55 AM52 °FOvercast.6 mph75%30.06 "Hg10 mi
2:15 AM52 °FOvercast.5 mph74%30.06 "Hg10 mi
1:55 AM51 °FOvercast.6 mph76%30.06 "Hg10 mi
1:15 AM52 °FOvercast.5 mph74%30.07 "Hg10 mi
12:55 AM52 °FOvercast.5 mph72%30.08 "Hg10 mi
12:35 AM52 °FOvercast.5 mph74%30.08 "Hg10 mi
12:15 AM52 °FOvercast.5 mph72%30.08 "Hg10 mi
11:55 PM
Oct 23
52 °FOvercast.3 mph72%30.08 "Hg10 mi
11:15 PM52 °FOvercast.6 mph73%30.08 "Hg10 mi
10:55 PM53 °FOvercast.5 mph70%30.09 "Hg10 mi
10:15 PM53 °FOvercast.6 mph71%30.09 "Hg10 mi
9:55 PM52 °FOvercast.3 mph73%30.10 "Hg10 mi
9:35 PM52 °FMostly cloudy.3 mph73%30.09 "Hg10 mi
9:15 PM52 °FMostly cloudy.3 mph74%30.09 "Hg10 mi
8:55 PM52 °FOvercast.3 mph71%30.09 "Hg10 mi
8:35 PM52 °FOvercast.3 mph73%30.09 "Hg10 mi
8:15 PM50 °FOvercast.5 mph75%30.10 "Hg10 mi
Weather by CustomWeather, © 2014

See weather overviewHow to use our weather pages